Date String (YYYY-MM-DD hh:mm:ss) UTC,Instrument flags,Ambient pressure (hPa),Sample flow (lpm),Bypass flow (lpm),Sample temperature (°C),Ambient temperature (°C),ASC tube jacket temperature (°C),LED temperature (°C),Box temperature (°C),Sample RH (%),Span deviation,Mass concentration (μg/m³),Mass concentration (μg/m³),Mass concentration (μg/m³)
DateTimeUTC,F1_M11,P_M11,Q1_M11,Q2_M11,T1_M11,T2_M11,T3_M11,T4_M11,T5_M11,U1_M11,ZSPAN_M11,X2_M11,X0_M11,X1_M11
2022-07-23 02:00:00,,0825.5,5.00,0.00,29.4,27.9,00.0,38.0,31.4,22.1,0000.0,0004.99,0010.24,0004.29
2022-07-23 02:01:00,,0825.4,5.00,0.00,29.3,27.1,00.0,37.9,31.2,22.0,0000.0,0004.98,0010.33,0004.27
2022-07-23 02:02:00,,0825.5,5.00,0.00,29.3,26.9,00.0,37.9,31.2,22.0,0000.0,0004.94,0010.31,0004.25
2022-07-23 02:03:00,,0825.5,5.00,0.00,29.3,27.0,00.0,37.9,31.1,22.1,0000.0,0004.91,0010.19,0004.24
2022-07-23 02:04:00,,0825.4,4.99,0.00,29.2,27.1,00.0,37.9,31.1,22.1,0000.0,0004.89,0010.23,0004.23
2022-07-23 02:05:00,,0825.5,5.00,0.00,29.2,27.3,00.0,37.9,31.1,22.1,0000.0,0004.90,0010.60,0004.23
2022-07-23 02:06:00,,0825.5,5.00,0.00,29.2,27.6,00.0,37.9,31.2,22.1,0000.0,0004.89,0010.38,0004.23
2022-07-23 02:07:00,,0825.4,5.00,0.00,29.3,27.8,00.0,38.0,31.2,22.2,0000.0,0004.93,0009.81,0004.22
2022-07-23 02:08:00,,0825.4,5.00,0.00,29.3,28.0,00.0,38.0,31.3,22.0,0000.0,0004.92,0009.75,0004.22
2022-07-23 02:09:00,,0825.5,5.01,0.00,29.3,28.2,00.0,38.0,31.4,22.0,0000.0,0004.94,0009.87,0004.22
2022-07-23 02:10:00,,0825.4,5.01,0.00,29.4,28.0,00.0,38.0,31.4,21.8,0000.0,0004.96,0009.59,0004.23
2022-07-23 02:11:00,,0825.4,4.99,0.00,29.4,27.2,00.0,37.9,31.2,21.9,0000.0,0005.00,0009.67,0004.23
2022-07-23 02:12:00,,0825.5,5.01,0.00,29.3,26.9,00.0,37.9,31.2,22.0,0000.0,0004.98,0009.33,0004.24
2022-07-23 02:13:00,,0825.5,4.99,0.00,29.3,27.0,00.0,37.9,31.1,22.0,0000.0,0004.99,0009.99,0004.24
2022-07-23 02:14:00,,0825.4,5.01,0.00,29.2,27.1,00.0,37.9,31.1,22.0,0000.0,0004.99,0010.01,0004.23
2022-07-23 02:15:00,,0825.4,4.99,0.00,29.2,27.3,00.0,37.9,31.1,22.1,0000.0,0004.98,0010.08,0004.22
2022-07-23 02:16:00,,0825.5,4.99,0.00,29.2,27.5,00.0,37.9,31.1,22.0,0000.0,0004.94,0009.86,0004.22
2022-07-23 02:17:00,,0825.4,5.00,0.00,29.3,27.7,00.0,38.0,31.2,22.1,0000.0,0004.93,0009.94,0004.23
2022-07-23 02:18:00,,0825.4,5.00,0.00,29.3,27.9,00.0,38.0,31.3,22.0,0000.0,0004.88,0010.00,0004.24
2022-07-23 02:19:00,,0825.4,5.01,0.00,29.3,28.1,00.0,38.0,31.3,22.0,0000.0,0004.88,0010.19,0004.24
2022-07-23 02:20:00,,0825.4,5.01,0.00,29.4,28.2,00.0,38.0,31.4,21.9,0000.0,0004.83,0009.93,0004.24
2022-07-23 02:21:00,,0825.4,5.00,0.00,29.4,27.7,00.0,38.0,31.3,21.9,0000.0,0004.78,0010.27,0004.23
2022-07-23 02:22:00,,0825.4,4.99,0.00,29.3,27.0,00.0,37.9,31.2,22.0,0000.0,0004.74,0010.31,0004.22
2022-07-23 02:23:00,,0825.4,5.01,0.00,29.3,26.9,00.0,37.9,31.1,22.0,0000.0,0004.78,0010.29,0004.22
2022-07-23 02:24:00,,0825.5,5.01,0.00,29.3,26.9,00.0,37.9,31.1,22.0,0000.0,0004.78,0009.57,0004.23
2022-07-23 02:25:00,,0825.4,5.00,0.00,29.2,27.1,00.0,37.9,31.1,22.1,0000.0,0004.82,0009.96,0004.24
2022-07-23 02:26:00,,0825.4,5.00,0.00,29.2,27.3,00.0,37.9,31.1,22.1,0000.0,0004.87,0009.79,0004.24
2022-07-23 02:27:00,,0825.4,5.01,0.00,29.2,27.6,00.0,38.0,31.2,22.1,0000.0,0004.90,0010.36,0004.24
2022-07-23 02:28:00,,0825.4,5.00,0.00,29.3,27.8,00.0,38.0,31.2,22.1,0000.0,0004.91,0010.46,0004.22
2022-07-23 02:29:00,,0825.4,5.00,0.00,29.3,28.0,00.0,38.0,31.3,22.0,0000.0,0004.92,0010.43,0004.21
2022-07-23 02:30:00,,0825.3,5.01,0.00,29.3,28.1,00.0,38.0,31.3,21.9,0000.0,0004.94,0010.33,0004.21
2022-07-23 02:31:00,,0825.4,5.00,0.00,29.4,28.1,00.0,38.0,31.4,21.9,0000.0,0004.93,0010.64,0004.22
2022-07-23 02:32:00,,0825.3,5.01,0.00,29.4,27.4,00.0,37.9,31.3,21.8,0000.0,0004.95,0010.30,0004.24
2022-07-23 02:33:00,,0825.3,5.00,0.00,29.3,26.9,00.0,37.9,31.2,21.7,0000.0,0004.93,0010.12,0004.24
2022-07-23 02:34:00,,0825.3,5.00,0.00,29.3,26.8,00.0,37.9,31.1,21.7,0000.0,0004.89,0010.17,0004.24
2022-07-23 02:35:00,,0825.3,4.99,0.00,29.2,27.0,00.0,37.9,31.0,21.9,0000.0,0004.88,0010.23,0004.24
2022-07-23 02:36:00,,0825.3,5.01,0.00,29.2,27.2,00.0,37.9,31.0,22.0,0000.0,0004.85,0009.85,0004.24
2022-07-23 02:37:00,,0825.4,5.00,0.00,29.2,27.4,00.0,37.9,31.1,21.9,0000.0,0004.83,0009.90,0004.24
2022-07-23 02:38:00,,0825.3,5.01,0.00,29.2,27.6,00.0,37.9,31.2,21.9,0000.0,0004.78,0009.08,0004.24
2022-07-23 02:39:00,,0825.3,5.00,0.00,29.3,27.8,00.0,38.0,31.2,21.9,0000.0,0004.78,0008.81,0004.24
2022-07-23 02:40:00,,0825.3,5.00,0.00,29.3,28.0,00.0,38.0,31.3,21.8,0000.0,0004.79,0008.74,0004.24
2022-07-23 02:41:00,,0825.3,4.98,0.00,29.3,28.2,00.0,38.0,31.3,21.7,0000.0,0004.77,0008.75,0004.23
2022-07-23 02:42:00,,0825.3,5.00,0.00,29.4,27.9,00.0,38.0,31.3,21.7,0000.0,0004.80,0008.60,0004.23
2022-07-23 02:43:00,,0825.3,5.00,0.00,29.3,27.2,00.0,37.9,31.2,21.7,0000.0,0004.82,0008.64,0004.22
2022-07-23 02:44:00,,0825.3,5.00,0.00,29.3,26.9,00.0,37.9,31.1,21.7,0000.0,0004.87,0008.73,0004.22
2022-07-23 02:45:00,,0825.3,4.99,0.00,29.2,26.9,00.0,37.9,31.0,21.7,0000.0,0004.87,0008.58,0004.21
2022-07-23 02:46:00,,0825.3,5.00,0.00,29.2,27.1,00.0,37.9,31.0,21.7,0000.0,0004.89,0008.57,0004.21
2022-07-23 02:47:00,,0825.3,5.01,0.00,29.2,27.2,00.0,37.9,31.0,21.7,0000.0,0004.87,0008.64,0004.19
2022-07-23 02:48:00,,0825.4,4.99,0.00,29.2,27.4,00.0,37.9,31.1,21.6,0000.0,0004.83,0008.82,0004.17
2022-07-23 02:49:00,,0825.4,5.01,0.00,29.2,27.6,00.0,37.9,31.2,21.6,0000.0,0004.84,0008.87,0004.16
2022-07-23 02:50:00,,0825.3,5.00,0.00,29.2,27.8,00.0,37.9,31.2,21.5,0000.0,0004.82,0009.02,0004.16
2022-07-23 02:51:00,,0825.4,4.99,0.00,29.3,28.0,00.0,38.0,31.3,21.5,0000.0,0004.75,0008.94,0004.13
2022-07-23 02:52:00,,0825.3,5.00,0.00,29.3,28.2,00.0,38.0,31.3,21.4,0000.0,0004.73,0009.22,0004.12
2022-07-23 02:53:00,,0825.3,5.00,0.00,29.4,28.3,00.0,38.0,31.4,21.3,0000.0,0004.72,0009.32,0004.09
2022-07-23 02:54:00,,0825.3,5.00,0.00,29.4,27.9,00.0,38.0,31.4,21.1,0000.0,0004.70,0009.28,0004.07
2022-07-23 02:55:00,,0825.4,4.99,0.00,29.3,27.1,00.0,37.9,31.2,21.1,0000.0,0004.69,0009.39,0004.04
2022-07-23 02:56:00,,0825.3,5.00,0.00,29.3,26.9,00.0,37.9,31.2,21.1,0000.0,0004.68,0009.71,0004.01
2022-07-23 02:57:00,,0825.4,4.99,0.00,29.3,27.0,00.0,37.9,31.1,21.2,0000.0,0004.67,0009.74,0003.98
2022-07-23 02:58:00,,0825.4,5.01,0.00,29.2,27.2,00.0,37.9,31.0,21.2,0000.0,0004.67,0009.66,0003.97
2022-07-23 02:59:00,,0825.3,4.99,0.00,29.2,27.3,00.0,37.9,31.1,21.1,0000.0,0004.64,0009.32,0003.94
